Regional Weather Roundup
Issued by NWS

Home | Current Version | Previous Version | Graphics & Text | Print | Product List | Glossary On
Versions: 1 2 3 4 5 6 7 8 9 10 11 12 13 14 15 16 17 18 19 20 21 22 23 24 25 26 27 28 29 30 31 32 33 34 35 36 37 38 39 40 41 42 43 44 45 46 47 48 49 50
602
ASUS45 KTFX 300410
RWRMT
MONTANA REGIONAL WEATHER ROUNDUP
NATIONAL WEATHER SERVICE GREAT FALLS MT
1000 PM MDT THU SEP 29 2016

NOTE: "FAIR" INDICATES FEW OR NO CLOUDS BELOW 12000 FEET WITH NO
SIGNIFICANT WEATHER AND/OR OBSTRUCTIONS TO VISIBILITY.

MTZ001>007-043-300500-
WEST OF THE DIVIDE

CITY           SKY/WX    TMP DP  RH WIND       PRES   REMARKS
KALISPELL      CLEAR     48  45  89 CALM      29.98R
MISSOULA       PTCLDY    67  45  45 SE13      30.00R
BUTTE          LGT RAIN  58  47  66 CALM      30.25R
MULLAN PASS    PTCLDY    61  41  47 VRB3      30.13S
ANACONDA         N/A     61  46  59 S17G25    30.17R
DEER LODGE       N/A     63  46  55 SE20G28   30.14R
EUREKA           N/A     54  45  71 CALM      29.98S
HAMILTON         N/A     70  45  40 S12G20    30.07R
LIBBY            N/A     54  48  82 CALM      29.96R
PLAINS           N/A     55  45  69 CALM      29.98
RONAN            N/A     50  44  79 CALM      30.04S
$$

MTZ008-052>055-300500-
SOUTHWEST MONTANA

CITY           SKY/WX    TMP DP  RH WIND       PRES   REMARKS
BOZEMAN        CLOUDY    55  46  71 CALM      30.12R
DILLON         CLOUDY    60  41  49 S9        30.20R
W YELLOWSTONE  CLOUDY    45  39  81 CALM      30.32R
ENNIS          CLOUDY    63  43  48 S9G17     30.24R
THREE FORKS      N/A     69  34  27 W5        30.09R
TWIN BRIDGES     N/A     65  40  39 SE3       30.17R
$$

MTZ009-010-012-014-046-048-049-054-300500-
EAST SLOPES AND CENTRAL MONTANA

CITY           SKY/WX    TMP DP  RH WIND       PRES   REMARKS
CUT BANK       PTCLDY    52  46  80 NW5       30.06S
GREAT FALLS    CLEAR     63  48  58 E12       30.03F
MALMSTROM AFB  CLEAR     60  49  68 E7        30.04S
HELENA         CLOUDY    66  43  43 SW7       30.05R
CHOTEAU          N/A     57  48  72 CALM      30.08S
CONRAD           N/A     56  51  83 NW1       30.07R
$$

MTZ011-013-016-021-045-047-050-051-300500-
NORTH CENTRAL MONTANA

CITY           SKY/WX    TMP DP  RH WIND       PRES   REMARKS
HAVRE          CLEAR     56  52  86 NW7       30.00R
LEWISTOWN      PTCLDY    63  49  60 CALM      30.06F
N BAR RANCH      N/A     61  46  59 W6        30.11S
CHINOOK          N/A     57  54  88 CALM      29.99S
$$

MTZ017>020-022>027-061-062-300500-
NORTHEAST MONTANA

CITY           SKY/WX    TMP DP  RH WIND       PRES   REMARKS
GLASGOW        CLEAR     63  48  58 E12       30.00S
JORDAN           N/A     59  50  72 CALM      30.00S
SIDNEY         PTCLDY    66  45  46 S9        30.09S
WOLF POINT     CLEAR     60  49  66 E10       30.03F
PLENTYWOOD       N/A     59  46  63 E13       30.10S
POPLAR           N/A     64  46  52 E13       30.04F
SCOBEY           N/A     63  42  46 E13       30.05S
$$

MTZ028>42-056>058-300500-
SOUTHCENTRAL AND SOUTHEAST MONTANA

CITY           SKY/WX    TMP DP  RH WIND       PRES   REMARKS
BAKER          CLOUDY    63  44  50 SE16      30.10F
BILLINGS       MOCLDY    67  52  58 SW9       30.06R
LIVINGSTON     PTCLDY    58  44  60 SW3       30.11R
MILES CITY     CLOUDY    73  47  39 E6        30.00F
BIG TIMBER     PTCLDY    66  43  42 W12       30.12S
EKALAKA          N/A     68  42  38 SE13      30.08S
FORSYTH          N/A     66  54  63 CALM      29.99F
LAUREL           N/A     67  49  52 SE5       30.05R
ROUNDUP          N/A     62  46  55 W6        29.96S
$$

REGIONAL REPORTS...DAKOTAS

CITY           SKY/WX    TMP DP  RH WIND       PRES   REMARKS
WILLISTON      PTCLDY    63  43  48 SE9       30.13S
MINOT          CLEAR     53  46  77 E9        30.23S
DICKINSON      PTCLDY    56  41  57 SE17G24   30.15S
BEACH            N/A     63  43  48 SE16      30.13F
CROSBY           N/A     59  45  58 SE20G25   30.15S
WATFORD CITY     N/A     59  41  51 SE13      30.14F
BISMARCK       CLEAR     55  45  68 SE12      30.25F
GRAND FORKS    CLEAR     52  45  77 SE9       30.37R
FARGO          CLEAR     52  45  77 E8        30.38S
BUFFALO SD       N/A     67  41  38 SE23G31   30.06F
RAPID CITY     PTCLDY    60  44  55 SE10      30.19S
$$

REGIONAL REPORTS...WYOMING/IDAHO/WASHINGTON

CITY           SKY/WX    TMP DP  RH WIND       PRES   REMARKS
GILLETTE       PTCLDY    65  48  54 S13       30.15S
SHERIDAN       CLEAR     58  50  75 CALM      30.08S
BUFFALO WY     CLOUDY    70  42  36 SW12      30.17S
CODY           CLOUDY    61  44  53 W9        30.19F
YELLOWSTONE LA   N/A     43  41  93 CALM      30.39R
IDAHO FALLS    CLOUDY    58  49  72 NE7       30.22R
SALMON         CLOUDY    57  45  62 SE6       30.13R
BOISE          PTCLDY    74  41  30 E13       29.97S
SPOKANE        MOCLDY    67  43  41 S8        29.95R
$$

REGIONAL REPORTS...ALBERTA

CITY           SKY/WX    TMP DP  RH WIND       PRES   REMARKS
EDMONTON       CLOUDY    52  39  62 E7        30.10S
CALGARY        MOCLDY    50  43  76 E5        30.08R
LETHBRIDGE     PTCLDY    52  46  82 VRB2      30.05S
MEDICINE HAT   CLEAR     57  50  77 NE3       30.02F
WATERTON GATE    N/A     39  37  93 SW1         N/A
MILK RIVER       N/A     46  45  93 N5          N/A
$$

REGIONAL REPORTS...SASKATCHEWAN

CITY           SKY/WX    TMP DP  RH WIND       PRES   REMARKS
SWIFT CURRENT  CLEAR     57  50  77 VRB2      30.02S
REGINA         MOCLDY    59  46  63 SE17      30.11S
SASKATOON      CLEAR     52  50  93 NE10      30.09F
CYPRESS HILLS    N/A     59  46  63 E3          N/A
VAL MARIE        N/A     61  46  59 E5          N/A
ROCKGLEN         N/A     59  46  63 SE13G18     N/A
$$




USA.gov is the U.S. government's official web portal to all federal, state and local government web resources and services.